Precipitable_Water
0.29 0.30 0.28 0.27 0.24 0.24 0.19 0.18 0.20 0.24 0.27 0.21 0.24 0.26 0.28 0.30 0.32 0.34 0.36 0.36 0.37 0.43 0.66 0.65 0.63 0.63 0.64 0.73 0.83 0.93 0.92 0.89 0.84 0.78 0.75 0.75 0.76 0.79 0.81 0.84 0.85 0.85 0.83 0.80
0.21 0.26 0.25 0.25 0.24 0.21 0.22 0.21 0.22 0.25 0.25 0.23 0.28 0.28 0.30 0.31 0.34 0.37 0.38 0.40 0.45 0.50 0.51 0.57 0.59 0.62 0.65 0.69 0.72 0.73 0.75 0.77 0.78 0.77 0.79 0.80 0.80 0.80 0.82 0.84 0.83 0.80 0.78 0.78
0.25 0.26 0.23 0.24 0.25 0.22 0.26 0.22 0.26 0.23 0.27 0.27 0.25 0.27 0.28 0.31 0.34 0.38 0.40 0.43 0.45 0.47 0.48 0.52 0.56 0.62 0.68 0.70 0.71 0.74 0.77 0.80 0.80 0.79 0.79 0.79 0.79 0.78 0.77 0.77 0.78 0.79 0.80 0.76
0.24 0.26 0.25 0.25 0.25 0.25 0.24 0.29 0.26 0.25 0.23 0.24 0.30 0.25 0.34 0.33 0.32 0.36 0.41 0.44 0.46 0.48 0.52 0.56 0.61 0.66 0.71 0.74 0.77 0.79 0.78 0.78 0.79 0.81 0.78 0.77 0.74 0.73 0.79 0.79 0.79 0.78 0.71 0.64
0.27 0.28 0.29 0.29 0.29 0.30 0.29 0.31 0.28 0.28 0.25 0.25 0.24 0.18 0.37 0.36 0.32 0.35 0.42 0.47 0.51 0.54 0.58 0.59 0.63 0.67 0.73 0.78 0.79 0.80 0.80 0.81 0.82 0.83 0.81 0.80 0.79 0.80 0.79 0.74 0.65 0.63 0.60 0.60
0.29 0.35 0.35 0.33 0.33 0.32 0.34 0.32 0.31 0.31 0.31 0.22 0.31 0.24 0.37 0.37 0.38 0.38 0.43 0.49 0.54 0.55 0.58 0.62 0.67 0.71 0.75 0.80 0.83 0.82 0.80 0.79 0.82 0.84 0.83 0.75 0.70 0.66 0.63 0.62 0.60 0.58 0.56 0.51
0.30 0.32 0.38 0.37 0.34 0.40 0.36 0.32 0.27 0.27 0.26 0.27 0.33 0.21 0.34 0.40 0.42 0.42 0.45 0.51 0.56 0.59 0.62 0.65 0.68 0.71 0.75 0.78 0.77 0.77 0.77 0.78 0.79 0.76 0.73 0.71 0.68 0.67 0.63 0.60 0.56 0.51 0.47 0.46
0.27 0.28 0.34 0.38 0.35 0.32 0.33 0.32 0.26 0.18 0.22 0.24 0.31 0.20 0.35 0.43 0.44 0.47 0.49 0.51 0.55 0.59 0.63 0.66 0.68 0.71 0.72 0.72 0.74 0.77 0.77 0.73 0.74 0.75 0.74 0.73 0.71 0.67 0.62 0.57 0.53 0.49 0.48 0.48
0.27 0.29 0.38 0.38 0.39 0.35 0.34 0.29 0.30 0.26 0.28 0.20 0.24 0.31 0.41 0.45 0.45 0.45 0.46 0.51 0.55 0.58 0.61 0.64 0.67 0.70 0.70 0.71 0.72 0.74 0.71 0.68 0.69 0.72 0.74 0.71 0.67 0.63 0.59 0.53 0.50 0.45 0.45 0.45
0.31 0.29 0.33 0.35 0.37 0.41 0.34 0.34 0.30 0.30 0.18 0.15 0.20 0.20 0.29 0.42 0.45 0.47 0.47 0.51 0.55 0.58 0.61 0.65 0.66 0.69 0.70 0.72 0.72 0.74 0.73 0.72 0.73 0.71 0.68 0.65 0.63 0.60 0.51 0.46 0.44 0.43 0.42 0.43
0.31 0.27 0.29 0.30 0.33 0.32 0.38 0.36 0.33 0.28 0.28 0.22 0.18 0.21 0.37 0.39 0.43 0.43 0.47 0.50 0.55 0.60 0.62 0.64 0.66 0.69 0.70 0.74 0.73 0.71 0.69 0.67 0.64 0.62 0.60 0.56 0.53 0.49 0.46 0.43 0.43 0.43 0.43 0.41
0.30 0.27 0.22 0.24 0.33 0.37 0.36 0.34 0.33 0.25 0.24 0.29 0.27 0.24 0.41 0.43 0.45 0.47 0.49 0.55 0.60 0.62 0.63 0.65 0.67 0.71 0.71 0.70 0.68 0.64 0.61 0.57 0.57 0.56 0.51 0.46 0.45 0.45 0.44 0.43 0.43 0.43 0.40 0.44
0.32 0.27 0.19 0.23 0.35 0.40 0.32 0.36 0.33 0.34 0.31 0.23 0.24 0.27 0.46 0.49 0.52 0.52 0.50 0.55 0.59 0.63 0.64 0.66 0.68 0.68 0.67 0.66 0.60 0.53 0.54 0.54 0.52 0.47 0.41 0.40 0.42 0.43 0.39 0.41 0.39 0.38 0.38 0.38
0.33 0.27 0.21 0.17 0.21 0.26 0.25 0.28 0.31 0.32 0.29 0.30 0.30 0.33 0.39 0.45 0.49 0.50 0.51 0.56 0.61 0.61 0.62 0.64 0.63 0.62 0.62 0.56 0.49 0.51 0.52 0.50 0.45 0.41 0.40 0.39 0.39 0.38 0.37 0.39 0.38 0.36 0.35 0.33
0.33 0.22 0.27 0.26 0.26 0.26 0.27 0.28 0.30 0.29 0.31 0.29 0.33 0.36 0.42 0.48 0.49 0.51 0.56 0.58 0.57 0.58 0.60 0.60 0.58 0.54 0.49 0.45 0.47 0.50 0.49 0.42 0.41 0.38 0.37 0.36 0.37 0.36 0.38 0.37 0.34 0.33 0.30 0.28
0.34 0.25 0.27 0.23 0.28 0.27 0.26 0.29 0.30 0.32 0.34 0.35 0.37 0.37 0.49 0.51 0.53 0.53 0.54 0.55 0.55 0.57 0.57 0.58 0.50 0.47 0.43 0.45 0.46 0.48 0.43 0.40 0.38 0.37 0.36 0.36 0.35 0.36 0.36 0.34 0.32 0.27 0.27 0.26
0.31 0.29 0.25 0.20 0.27 0.26 0.25 0.30 0.31 0.34 0.38 0.40 0.35 0.41 0.49 0.48 0.53 0.54 0.56 0.58 0.57 0.57 0.56 0.54 0.48 0.46 0.45 0.43 0.43 0.43 0.41 0.41 0.38 0.37 0.35 0.35 0.37 0.36 0.34 0.32 0.27 0.27 0.27 0.26
0.32 0.30 0.30 0.23 0.26 0.18 0.34 0.40 0.38 0.36 0.39 0.41 0.43 0.45 0.51 0.53 0.57 0.58 0.61 0.59 0.55 0.54 0.53 0.50 0.45 0.40 0.37 0.36 0.38 0.43 0.42 0.41 0.38 0.38 0.38 0.39 0.35 0.35 0.32 0.31 0.27 0.28 0.26 0.25
0.42 0.36 0.26 0.22 0.23 0.27 0.33 0.39 0.37 0.34 0.34 0.44 0.48 0.53 0.53 0.55 0.54 0.53 0.61 0.58 0.56 0.54 0.50 0.43 0.38 0.34 0.32 0.34 0.37 0.39 0.40 0.38 0.36 0.36 0.32 0.34 0.36 0.35 0.32 0.30 0.29 0.27 0.25 0.25
0.39 0.42 0.32 0.28 0.23 0.20 0.35 0.45 0.49 0.48 0.33 0.56 0.57 0.52 0.49 0.51 0.39 0.46 0.56 0.54 0.50 0.46 0.39 0.35 0.34 0.34 0.34 0.32 0.33 0.32 0.31 0.32 0.34 0.37 0.32 0.31 0.34 0.34 0.33 0.30 0.29 0.26 0.25 0.24
0.27 0.31 0.27 0.28 0.27 0.30 0.42 0.49 0.51 0.32 0.39 0.57 0.58 0.54 0.53 0.48 0.49 0.51 0.54 0.48 0.43 0.37 0.33 0.34 0.34 0.32 0.32 0.32 0.30 0.28 0.28 0.29 0.35 0.38 0.36 0.35 0.42 0.39 0.34 0.31 0.28 0.25 0.25 0.25
0.25 0.26 0.26 0.32 0.28 0.26 0.50 0.48 0.42 0.50 0.61 0.61 0.59 0.57 0.56 0.56 0.53 0.50 0.44 0.36 0.33 0.32 0.32 0.32 0.30 0.29 0.30 0.28 0.27 0.26 0.26 0.31 0.37 0.39 0.37 0.40 0.43 0.37 0.34 0.30 0.26 0.26 0.24 0.25
0.25 0.32 0.33 0.38 0.36 0.48 0.55 0.56 0.65 0.65 0.63 0.61 0.57 0.60 0.59 0.51 0.46 0.41 0.35 0.32 0.30 0.30 0.28 0.28 0.27 0.28 0.27 0.28 0.27 0.25 0.28 0.33 0.35 0.37 0.38 0.41 0.36 0.36 0.31 0.27 0.25 0.23 0.24 0.24
0.33 0.41 0.38 0.42 0.45 0.50 0.55 0.62 0.68 0.69 0.63 0.61 0.61 0.57 0.48 0.44 0.39 0.33 0.31 0.29 0.27 0.25 0.24 0.25 0.26 0.26 0.26 0.28 0.28 0.29 0.32 0.34 0.34 0.35 0.35 0.35 0.33 0.30 0.25 0.25 0.24 0.24 0.24 0.23
0.35 0.41 0.43 0.45 0.51 0.54 0.58 0.65 0.66 0.67 0.65 0.62 0.55 0.49 0.46 0.38 0.33 0.31 0.27 0.25 0.24 0.24 0.24 0.26 0.27 0.27 0.28 0.29 0.30 0.32 0.34 0.34 0.33 0.33 0.32 0.30 0.26 0.25 0.25 0.24 0.25 0.24 0.25 0.25
0.37 0.38 0.41 0.43 0.57 0.57 0.59 0.69 0.67 0.65 0.62 0.53 0.48 0.42 0.39 0.36 0.30 0.26 0.24 0.25 0.25 0.24 0.26 0.26 0.27 0.28 0.28 0.30 0.31 0.32 0.35 0.36 0.34 0.30 0.28 0.25 0.24 0.24 0.24 0.24 0.23 0.26 0.26 0.25
Wind_Speed
6 7 2 1 2 3 3 5 6 3 4 8 8 9 7 7 6 7 9 10 10 10 9 11 13 14 15 16 16 16 17 20 21 23 24 25 26 27 29 30 32 33 33 36
6 4 3 3 3 4 5 6 5 5 5 8 8 8 5 4 5 5 5 6 6 7 8 9 11 12 14 15 16 17 19 20 22 24 25 27 29 30 31 32 33 36 38 40
0 3 4 5 4 6 4 7 6 9 10 12 11 11 7 4 3 3 3 4 5 7 8 10 12 13 15 16 17 18 20 22 24 26 27 28 30 31 33 35 38 39 42 45
3 4 4 5 4 7 10 6 11 12 10 8 10 6 8 7 5 5 5 6 7 9 10 12 14 15 17 18 19 21 23 25 26 27 29 31 33 36 37 39 41 43 46 47
3 4 5 6 7 9 8 11 12 12 12 12 11 11 6 9 8 8 8 9 10 12 13 14 15 17 18 20 22 25 26 27 28 29 32 34 37 38 40 42 44 46 46 47
3 4 5 7 9 10 12 12 11 10 9 10 7 10 7 7 6 9 9 11 13 14 15 16 18 19 21 23 24 26 27 29 31 33 35 36 38 40 42 43 45 46 48 49
4 3 5 7 10 7 10 10 9 7 7 7 6 11 7 8 9 9 10 12 13 14 16 18 19 21 23 25 26 27 29 32 33 35 36 38 40 42 43 45 46 49 50 51
5 4 5 6 5 7 6 7 5 7 7 9 7 10 6 7 8 10 11 13 14 16 17 19 22 24 26 28 29 31 33 34 35 37 39 40 42 43 45 47 49 51 51 52
3 1 1 4 5 7 6 5 6 6 7 9 10 8 10 10 9 11 13 15 16 18 20 21 23 25 28 30 31 33 34 36 39 40 41 42 43 45 47 49 50 52 52 53
1 2 3 4 6 5 7 6 7 6 9 10 8 14 8 10 13 12 15 17 19 21 22 24 26 27 29 30 32 35 37 39 40 41 42 44 46 47 49 51 52 52 52 53
4 3 2 5 5 8 6 6 8 11 10 11 13 11 12 14 16 17 20 21 22 23 24 26 27 28 30 31 34 37 38 40 41 42 44 46 48 49 50 51 51 52 52 51
4 3 4 6 6 8 9 10 11 11 11 12 14 17 12 11 17 20 22 22 21 24 25 26 28 29 33 35 37 40 40 40 42 44 46 48 49 49 50 51 52 52 51 49
4 3 5 4 5 7 11 11 12 13 14 16 16 15 14 16 19 19 21 22 23 23 27 29 30 34 35 38 40 39 41 43 45 46 48 48 49 49 50 50 49 49 49 48
5 5 7 10 13 15 16 17 17 17 16 18 19 23 21 19 21 21 22 22 23 27 29 30 34 37 38 39 40 42 44 45 47 48 48 49 49 48 48 48 48 48 47 46
7 7 10 13 17 18 20 21 20 20 21 21 21 22 21 21 19 21 21 23 27 29 31 34 38 39 38 40 42 45 45 47 48 49 49 49 48 47 47 48 48 46 45 42
8 9 12 13 16 20 23 24 22 21 17 19 20 19 16 18 20 21 26 29 30 32 35 38 38 40 41 44 46 46 47 49 49 49 49 48 47 47 47 46 45 43 40 37
11 11 13 14 20 23 18 14 15 16 17 16 17 20 19 21 22 26 29 30 32 35 37 38 40 42 44 46 47 48 49 49 50 50 49 47 47 47 45 44 42 39 36 34
10 12 14 17 19 17 17 22 22 19 17 18 18 18 18 23 27 29 29 31 34 37 38 41 43 44 46 48 50 50 50 50 50 50 48 48 46 45 43 40 38 35 34 33
13 13 14 16 20 26 23 15 16 18 19 20 17 18 25 30 31 26 30 34 38 38 41 43 44 47 49 50 51 50 50 51 51 49 48 46 45 41 39 37 35 34 32 33
13 14 16 17 19 19 18 18 18 17 21 15 19 26 31 32 31 31 35 38 39 40 42 45 47 49 50 52 52 51 51 51 50 49 46 45 41 38 36 34 33 31 32 32
14 16 18 18 21 22 23 18 19 18 18 23 26 29 30 30 32 36 38 39 40 42 45 47 49 50 52 52 51 51 51 50 49 46 44 42 39 34 32 31 30 30 31 32
15 16 18 18 20 22 18 20 20 23 27 27 26 30 31 33 35 36 39 41 43 45 47 49 50 51 52 51 50 51 51 50 49 45 43 39 33 30 28 28 28 29 31 31
18 19 20 19 21 25 26 28 26 26 26 28 31 31 32 34 36 39 41 43 45 47 50 50 51 51 50 50 51 51 51 49 46 42 35 29 27 24 24 24 27 28 28 29
22 24 24 27 24 28 27 27 24 25 28 29 29 33 33 35 38 40 43 45 48 49 51 50 50 50 50 51 51 50 49 45 38 33 29 25 22 20 22 23 25 25 27 29
24 26 28 31 32 31 26 23 27 29 28 29 31 33 35 37 40 43 45 48 49 50 49 50 49 49 50 51 50 47 41 36 32 27 22 19 17 18 20 23 23 25 25 27
27 29 30 31 31 27 28 27 30 28 29 30 32 35 36 40 43 46 48 49 49 49 50 49 49 49 50 49 45 39 33 29 25 21 18 16 17 18 20 21 23 23 24 26
Wind_Direction
187 219 179 145 249 259 238 250 254 241 259 268 244 258 271 283 259 247 246 248 245 242 247 267 274 280 285 288 288 287 286 288 290 293 296 296 297 298 300 301 302 303 303 304
207 169 187 220 238 243 250 264 253 261 255 272 249 247 263 279 273 257 246 241 238 244 256 269 280 286 291 292 291 289 291 293 293 295 295 296 297 298 299 300 302 303 303 304
264 167 214 243 250 276 253 283 290 287 285 269 264 242 232 254 246 253 261 249 246 255 265 278 286 288 292 294 293 293 294 295 296 296 296 297 299 299 300 299 301 301 303 303
190 215 240 254 261 289 280 279 285 279 274 275 237 250 232 233 238 246 250 266 268 273 282 286 288 291 292 293 294 295 296 297 298 298 297 299 299 300 299 300 301 301 303 303
218 234 260 269 284 287 288 289 282 277 269 273 247 261 232 240 238 253 263 274 279 283 286 288 289 291 293 294 295 297 298 298 299 299 299 300 300 300 300 301 302 303 303 303
213 257 285 296 284 279 284 276 271 270 266 263 263 270 226 244 265 269 271 280 285 286 286 288 290 291 294 297 298 299 299 300 300 300 301 302 302 302 302 303 304 304 304 304
224 283 284 307 292 269 296 282 273 265 255 269 276 273 278 273 276 279 275 284 289 289 291 292 293 294 296 299 300 301 301 301 302 303 303 304 304 304 304 305 305 306 306 305
246 229 323 329 331 307 318 306 296 281 287 287 261 277 261 265 272 275 282 288 290 292 293 295 296 297 298 300 301 302 303 304 304 304 305 306 305 306 306 306 306 306 306 306
273 290 310 345 340 321 321 323 303 281 284 279 280 274 264 257 268 278 289 291 293 295 296 298 300 300 302 303 304 304 305 305 305 305 306 306 306 306 306 307 306 307 306 306
343 277 309 323 310 333 327 317 295 301 294 290 287 298 304 258 271 284 287 295 297 297 299 301 302 303 305 306 307 308 308 308 307 307 307 307 307 308 308 308 308 309 308 308
352 325 5 319 335 334 316 305 308 300 295 289 291 293 299 292 290 292 297 299 299 299 301 303 305 306 307 307 309 310 310 310 310 309 309 309 308 309 309 309 311 311 310 310
14 355 331 351 340 324 321 318 309 301 299 289 289 290 297 293 295 293 294 298 302 301 303 307 308 308 309 310 311 311 311 311 311 311 310 310 310 310 311 311 311 312 311 310
353 342 329 322 334 327 316 317 309 305 298 284 286 291 295 298 301 301 306 305 304 308 310 309 309 310 310 311 312 312 312 312 312 312 312 312 312 312 312 312 312 312 312 311
318 320 318 321 323 321 312 305 302 293 292 291 289 292 295 301 306 310 310 308 310 310 310 311 312 312 311 311 312 313 313 313 313 313 313 313 313 313 313 313 313 313 313 312
308 308 319 313 316 317 313 307 301 292 290 286 292 292 300 305 308 308 308 311 311 312 313 314 314 314 312 312 313 313 313 314 314 314 314 314 313 313 313 314 314 314 314 313
307 308 317 313 317 321 316 308 301 293 296 297 298 297 311 308 307 309 311 310 311 314 314 313 314 314 314 314 314 314 314 314 314 313 313 313 313 313 313 314 314 315 314 314
301 305 315 312 324 323 318 318 319 309 305 297 296 302 304 310 315 313 313 312 313 313 313 313 314 315 315 315 315 314 313 313 314 312 312 313 312 312 313 314 315 315 315 314
296 304 313 314 320 325 330 315 307 299 300 300 302 309 313 314 313 313 312 314 314 314 314 314 315 315 315 315 314 312 311 312 312 312 312 311 311 311 312 313 314 314 314 315
294 301 309 312 314 312 316 324 320 313 302 302 305 308 311 314 312 311 312 313 313 313 313 315 315 316 315 315 314 313 311 311 311 310 311 311 310 309 311 312 313 313 314 315
302 302 303 309 312 315 322 317 315 310 298 304 306 309 312 312 311 310 314 314 314 314 315 315 316 316 316 316 315 313 312 312 311 309 309 310 308 307 308 311 312 313 315 316
298 300 298 299 305 307 310 311 309 305 308 307 307 310 311 310 309 311 313 314 314 315 316 316 316 316 316 316 315 314 313 312 312 310 309 309 308 305 307 309 312 314 316 318
289 294 299 302 306 308 309 302 302 305 303 308 308 309 306 310 311 312 314 315 315 316 316 316 315 315 316 316 315 314 313 314 312 310 308 307 304 304 305 309 313 316 319 321
290 288 298 293 301 303 303 299 302 303 304 308 308 309 309 310 311 314 315 316 316 316 316 316 315 315 316 316 316 316 316 315 313 311 309 307 306 305 307 311 315 319 321 324
291 290 292 298 300 301 300 300 301 302 304 306 307 306 309 310 312 313 315 316 316 316 316 316 316 316 316 317 318 317 317 317 316 314 311 309 307 310 312 316 319 322 325 327
289 295 292 292 297 302 297 299 304 301 303 304 306 309 310 311 312 314 315 316 316 316 316 316 315 316 317 318 319 319 318 319 318 317 315 312 312 315 319 321 324 324 327 330
286 288 290 293 298 297 297 296 302 298 302 305 309 310 310 312 313 315 315 316 316 316 316 316 316 316 317 319 319 320 320 321 321 320 318 317 317 320 323 325 327 329 330 332